RESURS-DK 1

Last updated on Fri Apr 25 2025 00:02:11 GMT+0000 (Coordinated Universal Time)

1 29228U 06021A 25113.65896830 .00004052 00000+0 25033-3 0 9995 2 29228 69.9363 343.4221 0007894 255.9513 104.0774 15.10678555 39163
UTC large
Height (km)
Speed (km/s)
/
Latitude / Longitude
Inclination (degrees)
Orbital Period (minutes)
Azimuth
Elevation
Range (km)
Doppler Factor

Next 0 passes for location: London (51.5072 / 0.1276)

Sorry there are no passes over London.